Regional Weather Roundup
Issued by NWS Cleveland, OH

Home | Current Version | Previous Version | Graphics & Text | Print | Product List | Glossary On
Versions: 1 2 3 4 5 6 7 8 9 10 11 12 13 14 15 16 17 18 19 20 21 22 23 24 25 26 27 28 29 30 31 32 33 34 35 36 37 38 39 40 41 42 43 44 45 46 47 48 49 50
000
ASUS41 KCLE 241300
RWRCLE
OHIO REGIONAL WEATHER ROUNDUP
NATIONAL WEATHER SERVICE WILMINGTON, OH
900 AM EDT TUE APR 24 2018

NOTE: "FAIR" INDICATES FEW OR NO CLOUDS BELOW 12,000 FEET WITH NO
SIGNIFICANT WEATHER AND/OR OBSTRUCTIONS TO VISIBILITY.

OHZ001>008-015>018-024>027-034-035-043-044-241400-
   NORTHWEST OHIO

CITY           SKY/WX    TMP DP  RH WIND       PRES   REMARKS
DEFIANCE       CLOUDY    54  48  80 E12       30.07F
FINDLAY        CLOUDY    55  46  71 E8        30.06S
TOLEDO EXPRESS CLOUDY    53  49  86 E12       30.09F
TOLEDO EXEC    CLOUDY    51  47  86 E10       30.11S FOG
LIMA           CLOUDY    54  50  86 E12       30.04F
$$

OHZ009>014-019>023-028>033-038-089-241400-
   NORTHEAST OHIO

CITY           SKY/WX    TMP DP  RH WIND       PRES   REMARKS
CLE-HOPKINS    CLOUDY    58  46  64 SE22G29   30.15S
CLE-LAKEFRONT  CLOUDY    57  43  59 SE10      30.12S
CUY CO. ARPT   NOT AVBL
LORAIN-ELYRIA  LGT RAIN  53  44  71 SE7       30.13R
ASHTABULA      PTSUNNY   54  43  66 SE14      30.18F
AKRON-CANTON   CLOUDY    54  43  66 SE14      30.14R
WOOSTER        NOT AVBL
MANSFIELD      LGT RAIN  51  50  96 E13       30.09S
YOUNGSTOWN     CLOUDY    53  41  63 E14       30.16S
$$

OHZ042-051>053-060>062-070>072-077>081-241400-
  SOUTHWEST OHIO

CITY           SKY/WX    TMP DP  RH WIND       PRES   REMARKS
CINC-COVINGTON LGT RAIN  53  52  96 E10       29.95S
CINC-LUNKEN    LGT RAIN  54  52  93 E8        29.97F
HAMILTON       LGT RAIN  54  51  90 E7        29.99S
DAYTON         LGT RAIN  54  52  94 E18G24    30.01F
WRIGHT-PAT AFB LGT RAIN  53  50  88 E14       30.00F
DAYTON GENERAL LGT RAIN  54  50  86 E10       29.98S FOG
WILMINGTON     LGT RAIN  51  51 100 E8        29.99S
$$

OHZ036-037-039>041-045>050-054>059-063>069-073>076-082>088-241400-
  CENTRAL AND SOUTHEAST OHIO

CITY           SKY/WX    TMP DP  RH WIND       PRES   REMARKS
COLUMBUS       LGT RAIN  52  49  89 E14       30.05S FOG
OSU AIRPORT    LGT RAIN  52  50  93 E13       30.05S FOG
BOLTON FIELD   DRIZZLE   52  50  93 E10G18    30.04F
RICKENBACK AFB NOT AVBL
NEWARK         LGT RAIN  51  49  92 E9        30.06F FOG
MARION         CLOUDY    53  49  86 SE15      30.07S
LANCASTER      LGT RAIN  52  50  93 E10       30.05F
ZANESVILLE     RAIN      51  47  86 E12       30.07F FOG
NEW PHILLY     LGT RAIN  50  46  86 E9        30.13S FOG
$$




USA.gov is the U.S. government's official web portal to all federal, state and local government web resources and services.